Kosmos-2411

operational
NORAD ID: 28508 Int'l Des: 2004-053 Owner: KVR/IACG Country: RU Constellation: GLONASS
MEOCIRCULAR

Kosmos-2411について

説明を読み込み中...

リアルタイム位置

3D地球を読み込み中...

次回通過

高度履歴

Altitude vs Time

uPlot chart will show altitude changes over time

軌道要素

1 28508U 04053A 25306.10838638 .00000003 00000-0 00000-0 0 9991
2 28508 64.0636 68.2567 0006613 209.2346 147.7932 2.13103292162281
Epoch: Nov 2, 2025 • Age: 48 hours

現在のステータス

高度 19144.7 km
速度 3.95 km/s
衛星直下点 61.79°N, 95.91°E
打ち上げ日 Dec 26, 2004
運用期間 20.8 years
タイプ other

技術仕様

分類 Payload
質量 1450.00 kg
乾燥質量 1200.00 kg
総質量 1450.00 kg
長さ 4.00 m
直径 1.50 m
スパン 7.80 m
形状 Cyl + Ant + 2 Pan
製造者 POL
バスタイプ Uragan
フェーズステータス In Orbit
所有者/国 KVR/IACG/RU

大規模コンステレーション

Loading constellations...